FW7858 Weather Reports


Display with metric or nautical units.
time (UTC)temp
F
wind
direction
speed
MPH
gust
MPH
rain 1hr
in
rain 24hr
in
rain mn
in
humidity
%
barometer
mb
20260901030502 66 200 0.0 1.0 0.00 0.00 0.00 65 1009.3
20260901030059 66 200 0.0 0.0 0.00 0.00 0.00 65 1009.3
20260901025558 66 200 0.0 2.0 0.00 0.00 0.00 65 1009.3
20260901025058 66 200 0.0 2.0 0.00 0.00 0.00 65 1009.2
20260901024603 67 200 0.0 0.0 0.00 0.00 0.00 66 1009.1
20260901024058 67 200 0.0 0.0 0.00 0.00 0.00 66 1009.1
20260901023558 67 200 0.0 0.0 0.00 0.00 0.00 65 1009.1
20260901023058 67 200 0.0 0.0 0.00 0.00 0.00 64 1009.0
20260901022558 68 200 0.0 0.0 0.00 0.00 0.00 64 1008.9
20260901022058 68 200 0.0 0.0 0.00 0.00 0.00 64 1008.8
20260901021626 68 200 0.0 0.0 0.00 0.00 0.00 63 1008.8
20260901021057 68 200 0.0 0.0 0.00 0.00 0.00 64 1008.8
20260901020558 68 200 0.0 0.0 0.00 0.00 0.00 65 1008.8
20260901020112 68 200 0.0 0.0 0.00 0.00 0.00 63 1008.7
20260901015556 69 200 0.0 1.0 0.00 0.00 0.00 62 1008.6
20260901015058 69 200 0.0 1.0 0.00 0.00 0.00 62 1008.6
20260901014558 70 200 0.0 2.0 0.00 0.00 0.00 60 1008.6
20260901014056 70 200 0.0 3.0 0.00 0.00 0.00 60 1008.4
20260901013556 70 200 1.0 3.0 0.00 0.00 0.00 58 1008.3
20260901013106 71 200 2.0 3.0 0.00 0.00 0.00 58 1008.2
20260901012559 71 200 1.0 4.0 0.00 0.00 0.00 58 1008.3
20260901012058 72 200 2.0 4.0 0.00 0.00 0.00 57 1008.3
20260901011557 72 198 3.0 4.0 0.00 0.00 0.00 58 1008.2
20260901011057 72 194 2.0 4.0 0.00 0.00 0.00 57 1008.2
20260901010556 73 180 3.0 4.0 0.00 0.00 0.00 56 1008.3
20260901010055 73 210 3.0 4.0 0.00 0.00 0.00 55 1008.1
20260901005557 74 212 3.0 4.0 0.00 0.00 0.00 55 1008.1
20260901005055 75 215 2.0 4.0 0.00 0.00 0.00 52 1008.2
20260901004554 76 216 3.0 5.0 0.00 0.00 0.00 51 1008.2
20260901004054 76 216 3.0 5.0 0.00 0.00 0.00 50 1008.2
20260901003554 77 216 3.0 5.0 0.00 0.00 0.00 49 1008.2
20260901003106 77 216 4.0 6.0 0.00 0.00 0.00 47 1008.1
20260901002554 78 215 4.0 8.0 0.00 0.00 0.00 45 1008.1
20260901002054 79 213 5.0 9.0 0.00 0.00 0.00 44 1008.1
20260901001608 79 207 5.0 8.0 0.00 0.00 0.00 43 1008.0
20260901001052 80 209 5.0 8.0 0.00 0.00 0.00 42 1008.1
20260901000552 80 209 6.0 9.0 0.00 0.00 0.00 43 1008.0
20260901000057 81 229 6.0 10.0 0.00 0.00 0.00 41 1008.0
20260831235555 81 203 6.0 10.0 0.00 0.00 0.00 41 1008.0
20260831235052 82 202 7.0 11.0 0.00 0.00 0.00 41 1008.1
20260831234603 82 205 6.0 11.0 0.00 0.00 0.00 42 1008.0
20260831234052 82 210 7.0 11.0 0.00 0.00 0.00 41 1008.0
20260831233553 82 203 6.0 10.0 0.00 0.00 0.00 42 1008.0
20260831233052 83 211 5.0 9.0 0.00 0.00 0.00 43 1008.1
20260831232551 83 207 6.0 10.0 0.00 0.00 0.00 41 1008.1
20260831232050 83 211 7.0 14.0 0.00 0.00 0.00 38 1008.1
20260831231550 83 221 7.0 14.0 0.00 0.00 0.00 37 1008.1
20260831231052 83 243 7.0 12.0 0.00 0.00 0.00 37 1008.1
20260831230551 83 234 9.0 14.0 0.00 0.00 0.00 35 1008.1
20260831230050 83 219 9.0 17.0 0.00 0.00 0.00 35 1008.0
20260831225548 84 207 11.0 17.0 0.00 0.00 0.00 34 1008.0
20260831225048 84 200 9.0 14.0 0.00 0.00 0.00 36 1008.0
20260831224548 84 232 10.0 14.0 0.00 0.00 0.00 35 1007.9
20260831224052 84 207 9.0 13.0 0.00 0.00 0.00 36 1008.0
20260831223548 84 227 9.0 14.0 0.00 0.00 0.00 37 1008.0
20260831223048 84 224 8.0 14.0 0.00 0.00 0.00 37 1008.0
20260831222548 85 208 9.0 15.0 0.00 0.00 0.00 37 1007.9
20260831222051 85 202 10.0 15.0 0.00 0.00 0.00 36 1007.9
20260831221548 84 231 8.0 15.0 0.00 0.00 0.00 37 1007.9
20260831221047 84 235 11.0 15.0 0.00 0.00 0.00 35 1007.9
20260831220546 84 210 11.0 16.0 0.00 0.00 0.00 37 1007.9
20260831220106 85 222 9.0 16.0 0.00 0.00 0.00 37 1008.0
20260831215548 85 202 12.0 16.0 0.00 0.00 0.00 38 1007.9
20260831215045 84 231 8.0 15.0 0.00 0.00 0.00 39 1007.9
20260831214644 84 235 10.0 15.0 0.00 0.00 0.00 39 1008.0
20260831214046 85 240 9.0 16.0 0.00 0.00 0.00 41 1008.0
20260831213544 85 193 8.0 16.0 0.00 0.00 0.00 39 1008.1
20260831213043 85 236 10.0 15.0 0.00 0.00 0.00 39 1008.0
20260831212545 84 229 9.0 15.0 0.00 0.00 0.00 39 1008.0
20260831212043 85 233 9.0 17.0 0.00 0.00 0.00 38 1008.0
20260831211552 85 214 9.0 13.0 0.00 0.00 0.00 37 1008.0
20260831211041 84 230 9.0 13.0 0.00 0.00 0.00 40 1008.1
20260831210542 84 213 10.0 13.0 0.00 0.00 0.00 41 1008.2
20260831210048 84 225 9.0 16.0 0.00 0.00 0.00 40 1008.2
20260831205538 84 219 9.0 16.0 0.00 0.00 0.00 39 1008.3
20260831205039 84 221 9.0 14.0 0.00 0.00 0.00 41 1008.4
20260831204538 83 242 8.0 14.0 0.00 0.00 0.00 43 1008.4
20260831204038 83 214 9.0 14.0 0.00 0.00 0.00 41 1008.3
20260831203537 84 221 8.0 12.0 0.00 0.00 0.00 42 1008.4
20260831203036 83 246 6.0 14.0 0.00 0.00 0.00 44 1008.5
20260831202535 83 230 9.0 14.0 0.00 0.00 0.00 43 1008.5
20260831202034 83 210 9.0 12.0 0.00 0.00 0.00 44 1008.5
20260831201543 82 223 5.0 13.0 0.00 0.00 0.00 43 1008.6
20260831201034 83 234 9.0 12.0 0.00 0.00 0.00 43 1008.6
20260831200534 82 240 8.0 14.0 0.00 0.00 0.00 44 1008.6
20260831200040 82 203 8.0 14.0 0.00 0.00 0.00 45 1008.6
20260831195531 82 236 7.0 14.0 0.00 0.00 0.00 46 1008.7
20260831195035 82 196 7.0 10.0 0.00 0.00 0.00 45 1008.7
20260831194602 82 238 5.0 10.0 0.00 0.00 0.00 48 1008.8
20260831194030 82 230 5.0 11.0 0.00 0.00 0.00 46 1008.7
20260831193530 81 233 7.0 11.0 0.00 0.00 0.00 46 1008.7
20260831193029 81 187 7.0 11.0 0.00 0.00 0.00 47 1008.7
20260831192532 81 211 6.0 10.0 0.00 0.00 0.00 47 1008.8
20260831192026 81 254 6.0 12.0 0.00 0.00 0.00 49 1008.8
20260831191533 81 238 9.0 12.0 0.00 0.00 0.00 47 1008.8
20260831191026 81 184 5.0 11.0 0.00 0.00 0.00 50 1008.8
20260831190525 81 213 6.0 11.0 0.00 0.00 0.00 51 1008.8
20260831190023 80 240 3.0 10.0 0.00 0.00 0.00 54 1008.8
20260831185522 80 242 4.0 10.0 0.00 0.00 0.00 53 1008.8
20260831185021 80 238 3.0 12.0 0.00 0.00 0.00 52 1008.9
20260831184527 80 259 8.0 12.0 0.00 0.00 0.00 52 1009.0
20260831184020 79 243 4.0 8.0 0.00 0.00 0.00 55 1009.0
20260831183520 79 219 3.0 11.0 0.00 0.00 0.00 53 1009.0
20260831183020 78 230 5.0 11.0 0.00 0.00 0.00 54 1009.0
20260831182519 79 227 5.0 9.0 0.00 0.00 0.00 54 1009.0
20260831182020 79 236 6.0 9.0 0.00 0.00 0.00 53 1009.1
20260831181524 79 246 1.0 8.0 0.00 0.00 0.00 56 1009.0
20260831181017 79 249 4.0 8.0 0.00 0.00 0.00 57 1009.1
20260831180526 79 240 3.0 8.0 0.00 0.00 0.00 55 1009.1
20260831180015 78 240 1.0 8.0 0.00 0.00 0.00 56 1009.1
20260831175514 78 236 3.0 8.0 0.00 0.00 0.00 60 1009.1
20260831175013 78 229 1.0 6.0 0.00 0.00 0.00 59 1009.1
20260831174512 77 239 3.0 10.0 0.00 0.00 0.00 60 1009.1
20260831174011 76 244 5.0 10.0 0.00 0.00 0.00 59 1009.1
20260831173511 77 248 5.0 10.0 0.00 0.00 0.00 61 1009.0
20260831173009 76 223 1.0 7.0 0.00 0.00 0.00 62 1009.1
20260831172509 76 240 2.0 9.0 0.00 0.00 0.00 62 1009.1
20260831172009 76 245 3.0 10.0 0.00 0.00 0.00 61 1009.1
20260831171507 76 244 2.0 8.0 0.00 0.00 0.00 62 1009.1
20260831171006 76 341 2.0 5.0 0.00 0.00 0.00 63 1009.0
20260831170505 76 334 1.0 4.0 0.00 0.00 0.00 63 1009.0
20260831170002 75 327 0.0 8.0 0.00 0.00 0.00 67 1009.1
20260831165502 75 238 2.0 8.0 0.00 0.00 0.00 65 1009.1
20260831165002 75 10 0.0 5.0 0.00 0.00 0.00 68 1009.1
20260831164500 75 11 0.0 5.0 0.00 0.00 0.00 67 1009.2
20260831164103 74 12 0.0 9.0 0.00 0.00 0.00 66 1009.1
20260831163600 75 11 2.0 9.0 0.00 0.00 0.00 67 1009.1
20260831163100 74 355 0.0 4.0 0.00 0.00 0.00 68 1009.1
20260831162558 75 290 0.0 4.0 0.00 0.00 0.00 70 1009.2
20260831162059 74 290 0.0 4.0 0.00 0.00 0.00 71 1009.3
20260831161557 74 11 2.0 4.0 0.00 0.00 0.00 70 1009.3
20260831161057 74 235 1.0 5.0 0.00 0.00 0.00 71 1009.3
20260831160555 74 288 0.0 4.0 0.00 0.00 0.00 74 1009.4
20260831160055 73 344 0.0 4.0 0.00 0.00 0.00 77 1009.4
20260831155552 73 292 0.0 4.0 0.00 0.00 0.00 79 1009.4
20260831155056 72 313 0.0 6.0 0.00 0.00 0.00 80 1009.4
20260831154552 71 316 2.0 7.0 0.00 0.00 0.00 81 1009.4
20260831154050 71 244 3.0 7.0 0.00 0.00 0.00 81 1009.2
20260831153550 71 246 4.0 7.0 0.00 0.00 0.00 81 1009.3
20260831153054 71 249 2.0 7.0 0.00 0.00 0.00 82 1009.3
20260831152549 70 242 2.0 7.0 0.00 0.00 0.00 84 1009.3
20260831152048 70 245 3.0 8.0 0.00 0.00 0.00 83 1009.2
20260831151650 70 238 3.0 8.0 0.00 0.00 0.00 84 1009.1
20260831151048 69 243 5.0 8.0 0.00 0.00 0.00 84 1009.2
20260831150547 69 229 3.0 7.0 0.00 0.00 0.00 86 1009.2
20260831150050 68 243 3.0 7.0 0.00 0.00 0.00 87 1009.2
20260831145545 68 219 2.0 5.0 0.00 0.00 0.00 88 1009.1
20260831145049 68 242 1.0 6.0 0.00 0.00 0.00 88 1009.0
20260831144554 67 245 2.0 5.0 0.00 0.00 0.00 90 1008.9
20260831144043 67 256 1.0 4.0 0.00 0.00 0.00 91 1008.9
20260831143543 66 257 1.0 4.0 0.00 0.00 0.00 91 1008.8
20260831143046 66 254 1.0 3.0 0.00 0.00 0.00 92 1008.7
20260831142542 66 255 0.0 0.0 0.00 0.00 0.00 93 1008.8
20260831142043 65 255 0.0 0.0 0.00 0.00 0.00 93 1008.6
20260831141543 65 255 0.0 0.0 0.00 0.00 0.00 94 1008.6
20260831141041 65 255 0.0 2.0 0.00 0.00 0.00 94 1008.7
20260831140544 65 255 0.0 2.0 0.00 0.00 0.00 95 1008.7
20260831140039 64 255 1.0 2.0 0.00 0.00 0.00 95 1008.5
20260831135539 64 255 1.0 3.0 0.00 0.00 0.00 95 1008.5
20260831135039 64 255 0.0 4.0 0.00 0.00 0.00 95 1008.3
20260831134540 64 255 1.0 4.0 0.00 0.00 0.00 95 1008.2
20260831134036 64 222 0.0 4.0 0.00 0.00 0.00 96 1008.3
20260831133538 64 222 1.0 4.0 0.00 0.00 0.00 96 1008.2
20260831133036 64 213 0.0 2.0 0.00 0.00 0.00 96 1008.2
20260831132536 64 210 0.0 4.0 0.00 0.00 0.00 96 1008.1
20260831132035 64 209 2.0 4.0 0.00 0.00 0.00 96 1008.0
20260831131534 64 104 0.0 3.0 0.00 0.00 0.00 96 1007.9
20260831131033 64 104 0.0 3.0 0.00 0.00 0.00 96 1007.9
20260831130533 64 74 0.0 0.0 0.00 0.00 0.00 96 1007.8
20260831130035 63 83 0.0 2.0 0.00 0.00 0.00 96 1007.7
20260831125539 63 279 0.0 3.0 0.00 0.00 0.00 96 1007.7
20260831125030 63 276 1.0 3.0 0.00 0.00 0.00 96 1007.6
20260831124530 63 268 1.0 6.0 0.00 0.00 0.00 96 1007.3
20260831124028 63 271 1.0 6.0 0.00 0.00 0.00 96 1007.2
20260831123529 63 32 0.0 4.0 0.00 0.00 0.00 96 1007.1
20260831123027 63 101 1.0 6.0 0.00 0.00 0.00 95 1007.1
20260831122527 64 262 2.0 6.0 0.00 0.00 0.00 95 1007.0
20260831122027 64 140 2.0 6.0 0.00 0.00 0.00 95 1006.9
20260831121533 64 211 0.0 4.0 0.00 0.00 0.00 96 1007.0
20260831121028 64 351 2.0 4.0 0.00 0.00 0.00 96 1007.0
20260831120524 64 236 0.0 5.0 0.00 0.00 0.00 96 1006.9
20260831120024 64 302 1.0 5.0 0.00 0.00 0.00 96 1006.7
20260831115525 64 256 1.0 4.0 0.00 0.00 0.00 96 1006.6
20260831115021 64 244 1.0 5.0 0.00 0.00 0.00 95 1006.4
20260831114622 64 130 2.0 5.0 0.00 0.00 0.00 95 1006.2
20260831114019 64 254 0.0 3.0 0.00 0.00 0.00 95 1006.3
20260831113518 64 240 0.0 3.0 0.00 0.00 0.00 95 1006.1
20260831113017 64 237 1.0 3.0 0.00 0.00 0.00 95 1005.9
20260831112516 64 279 1.0 5.0 0.00 0.00 0.00 95 1005.9
20260831112014 65 241 2.0 6.0 0.00 0.00 0.00 96 1005.8
20260831111514 65 290 1.0 4.0 0.00 0.00 0.00 96 1005.7
20260831111015 65 19 1.0 7.0 0.00 0.00 0.00 96 1005.7
20260831110513 65 33 2.0 7.0 0.00 0.00 0.00 96 1005.4
20260831110012 65 305 1.0 5.0 0.00 0.00 0.00 96 1005.5
20260831105511 65 285 1.0 11.0 0.00 0.00 0.00 95 1005.4
20260831105013 65 292 2.0 11.0 0.00 0.00 0.00 95 1005.2
20260831104511 65 311 1.0 4.0 0.00 0.00 0.00 95 1005.1
20260831104008 65 232 1.0 7.0 0.00 0.00 0.00 95 1005.2
20260831103508 65 304 2.0 8.0 0.00 0.00 0.00 95 1005.3
20260831103007 65 306 2.0 12.0 0.00 0.00 0.00 96 1005.3
20260831102506 65 295 2.0 7.0 0.00 0.00 0.00 95 1005.3
20260831102007 66 277 0.0 4.0 0.00 0.00 0.00 96 1005.1
20260831101505 66 242 2.0 4.0 0.00 0.00 0.00 96 1005.1
20260831101002 66 276 1.0 7.0 0.00 0.00 0.00 96 1005.0
20260831100501 67 288 1.0 4.0 0.00 0.00 0.00 96 1004.9
20260831100002 67 344 1.0 4.0 0.00 0.00 0.00 96 1004.8
20260831095600 67 355 1.0 4.0 0.00 0.00 0.00 96 1004.8
20260831095059 68 221 1.0 7.0 0.00 0.00 0.00 97 1004.7
20260831094559 68 205 2.0 10.0 0.00 0.00 0.00 97 1004.5
20260831094059 68 214 2.0 13.0 0.00 0.00 0.00 97 1004.5
20260831093558 69 246 4.0 13.0 0.00 0.00 0.00 97 1004.5
20260831093057 70 246 5.0 11.0 0.00 0.00 0.00 98 1004.4
20260831092557 69 243 5.0 10.0 0.00 0.00 0.00 99 1004.2
20260831092059 67 239 2.0 4.0 0.00 0.00 0.00 97 1004.2
20260831091555 67 252 2.0 3.0 0.00 0.00 0.00 96 1004.1
20260831091053 68 252 0.0 3.0 0.00 0.00 0.00 97 1003.8
20260831090557 68 252 1.0 3.0 0.00 0.00 0.00 96 1003.7
20260831090052 68 252 0.0 0.0 0.00 0.00 0.00 96 1003.8
20260831085550 68 252 0.0 0.0 0.00 0.00 0.00 95 1003.8
20260831085051 69 252 0.0 0.0 0.00 0.00 0.00 96 1003.7
20260831084555 69 252 0.0 0.0 0.00 0.00 0.00 96 1003.5
20260831084051 69 252 0.0 0.0 0.00 0.00 0.00 96 1003.4
20260831083547 69 252 0.0 0.0 0.00 0.00 0.00 96 1003.4
20260831083049 70 252 0.0 0.0 0.00 0.00 0.00 96 1003.5
20260831082545 70 252 0.0 0.0 0.00 0.00 0.00 96 1003.5
20260831082048 70 252 0.0 0.0 0.00 0.00 0.00 95 1003.6
20260831081605 71 252 0.0 0.0 0.00 0.00 0.00 96 1003.4
20260831081044 71 252 0.0 0.0 0.00 0.00 0.00 96 1003.5
20260831080543 71 252 0.0 0.0 0.00 0.00 0.00 96 1003.5
20260831080043 71 252 0.0 0.0 0.00 0.00 0.00 96 1003.6
20260831075543 71 252 0.0 0.0 0.00 0.00 0.00 96 1003.4
20260831075042 71 252 0.0 0.0 0.00 0.00 0.00 96 1003.5
20260831074546 71 252 0.0 0.0 0.00 0.00 0.00 96 1003.5
20260831074042 71 252 0.0 0.0 0.00 0.00 0.00 96 1003.6
20260831073542 71 252 0.0 0.0 0.00 0.00 0.00 96 1003.5
20260831073111 71 252 0.0 0.0 0.00 0.00 0.00 96 1003.5
20260831072540 71 252 0.0 2.0 0.00 0.00 0.00 96 1003.6
20260831072044 71 252 0.0 2.0 0.00 0.00 0.00 96 1003.5
20260831071540 71 252 0.0 1.0 0.00 0.00 0.00 96 1003.5
20260831071040 71 252 0.0 1.0 0.00 0.00 0.00 96 1003.4
20260831070543 71 252 0.0 7.0 0.00 0.00 0.00 96 1003.4
20260831070040 71 252 2.0 7.0 0.00 0.00 0.00 96 1003.4
20260831065538 71 254 0.0 3.0 0.00 0.00 0.00 95 1003.1
20260831065037 71 254 1.0 3.0 0.00 0.00 0.00 95 1003.1
20260831064540 71 254 1.0 3.0 0.00 0.00 0.00 95 1003.0
20260831064040 71 254 0.0 5.0 0.00 0.00 0.00 94 1002.9
20260831063534 71 254 3.0 5.0 0.00 0.00 0.00 94 1002.9
20260831063035 72 276 0.0 0.0 0.00 0.00 0.00 95 1002.9
20260831062536 72 276 0.0 0.0 0.00 0.00 0.00 95 1002.9
20260831062036 72 276 0.0 0.0 0.00 0.00 0.00 95 1003.0
20260831061537 72 276 0.0 3.0 0.00 0.00 0.00 95 1003.0
20260831061034 72 276 1.0 3.0 0.00 0.00 0.00 94 1002.8
20260831060531 72 275 0.0 2.0 0.00 0.00 0.00 94 1002.7
20260831060031 72 274 0.0 0.0 0.00 0.00 0.00 94 1002.8
20260831055530 72 274 0.0 0.0 0.00 0.00 0.00 94 1002.8
20260831055030 72 274 0.0 2.0 0.00 0.00 0.00 94 1002.8
20260831054528 72 275 1.0 2.0 0.00 0.00 0.00 94 1002.6
20260831054028 72 275 1.0 4.0 0.00 0.00 0.00 94 1002.6
20260831053527 72 272 1.0 4.0 0.00 0.00 0.00 94 1002.6
20260831053033 72 259 0.0 4.0 0.00 0.00 0.00 94 1002.4
20260831052529 72 290 1.0 4.0 0.00 0.00 0.00 93 1002.4
20260831052026 73 331 1.0 5.0 0.00 0.00 0.00 93 1002.4
20260831051527 73 340 2.0 5.0 0.00 0.00 0.00 93 1002.4
20260831051025 73 254 1.0 3.0 0.00 0.00 0.00 93 1002.5
20260831050529 73 167 0.0 5.0 0.00 0.00 0.00 93 1002.6
20260831050038 73 163 1.0 5.0 0.00 0.00 0.00 93 1002.4
20260831045524 73 281 2.0 4.0 0.00 0.00 0.00 93 1002.4
20260831045024 73 243 1.0 3.0 0.00 0.00 0.00 93 1002.4
20260831044523 73 202 1.0 4.0 0.00 0.00 0.00 93 1002.5
20260831044024 73 316 1.0 4.0 0.00 0.00 0.00 93 1002.4
20260831043522 73 318 1.0 5.0 0.00 0.00 0.00 93 1002.3
20260831043025 73 71 1.0 5.0 0.00 0.00 0.00 93 1002.2
20260831042522 73 321 2.0 7.0 0.00 0.00 0.00 93 1002.2
20260831042022 73 292 2.0 7.0 0.00 0.00 0.00 93 1002.2
20260831041525 73 281 2.0 4.0 0.00 0.00 0.00 93 1002.3
20260831041022 73 335 2.0 8.0 0.00 0.00 0.00 92 1002.3
20260831040522 73 290 3.0 8.0 0.00 0.00 0.00 92 1002.4
20260831040041 73 319 2.0 5.0 0.00 0.00 0.00 92 1002.4
20260831035523 73 287 2.0 5.0 0.00 0.00 0.00 92 1002.7
20260831035021 73 301 2.0 7.0 0.00 0.00 0.00 92 1002.9
20260831034530 73 317 2.0 7.0 0.00 0.00 0.00 92 1003.0
20260831034021 73 317 2.0 5.0 0.00 0.00 0.00 92 1003.2
20260831033521 73 17 2.0 6.0 0.00 0.00 0.00 92 1003.3
20260831033021 73 326 2.0 4.0 0.00 0.00 0.00 92 1003.4
20260831032520 73 310 2.0 4.0 0.00 0.00 0.00 92 1003.5
20260831032022 73 307 1.0 4.0 0.00 0.00 0.00 92 1003.5
20260831031524 73 310 2.0 5.0 0.00 0.00 0.00 92 1003.5
20260831031027 73 313 2.0 4.0 0.00 0.00 0.00 91 1003.6